Date String (YYYY-MM-DD hh:mm:ss) UTC,Instrument flags,absolute air pressure of the measurement (hPa),sample flow rate (lpm),inlet stack bypass flow (lpm),air temperature of the measurement (°C),ambient temperature measured by the external sensor (°C),aerosol sample conditioner tube jacket temperature (°C),OPC LED temperature (°C),internal box temperature (°C),relative humidity of the measurement (%),span deviation,mass concentration of particles derived from Lorenz-Mie calculation of OPC scattering (μg/m³),mass concentration of particles derived from Lorenz-Mie calculation of OPC scattering (μg/m³),mass concentration of particles derived from Lorenz-Mie calculation of OPC scattering (μg/m³)
DateTimeUTC,F1_M11,P_M11,Q1_M11,Q2_M11,T1_M11,T2_M11,T3_M11,T4_M11,T5_M11,U1_M11,ZSPAN_M11,X2_M11,X0_M11,X1_M11
2024-01-26 03:00:00,SystemResetWarning,0827.2,5.00,000.00,024.0,022.9,000.0,032.3,025.3,14.0,0003.8,0007.24,0014.90,0006.46
2024-01-26 03:01:00,SystemResetWarning,0827.2,5.00,000.00,023.9,022.9,000.0,032.3,025.3,14.0,0004.1,0007.17,0014.71,0006.44
2024-01-26 03:02:00,SystemResetWarning,0827.2,5.01,000.00,023.9,022.9,000.0,032.3,025.3,13.9,0004.6,0007.09,0014.52,0006.43
2024-01-26 03:03:00,SystemResetWarning,0827.2,5.01,000.00,023.9,023.0,000.0,032.3,025.3,14.1,0004.3,0007.06,0015.17,0006.43
2024-01-26 03:04:00,SystemResetWarning,0827.2,5.00,000.00,023.9,023.0,000.0,032.3,025.3,13.9,0003.8,0007.03,0014.87,0006.43
2024-01-26 03:05:00,SystemResetWarning,0827.2,5.01,000.00,023.9,023.0,000.0,032.3,025.3,13.7,0003.7,0007.05,0014.71,0006.44
2024-01-26 03:06:00,SystemResetWarning,0827.2,5.00,000.00,023.9,023.0,000.0,032.3,025.4,13.7,0003.8,0007.07,0014.68,0006.44
2024-01-26 03:07:00,SystemResetWarning,0827.3,5.00,000.00,023.9,023.0,000.0,032.3,025.4,13.8,0003.5,0007.06,0015.04,0006.43
2024-01-26 03:08:00,SystemResetWarning,0827.4,5.00,000.00,023.9,023.0,000.0,032.3,025.4,14.0,0003.6,0007.11,0014.18,0006.45
2024-01-26 03:09:00,SystemResetWarning,0827.4,4.99,000.00,023.9,023.0,000.0,032.3,025.4,14.1,0003.8,0007.10,0013.09,0006.45
2024-01-26 03:10:00,SystemResetWarning,0827.4,5.00,000.00,023.9,023.0,000.0,032.3,025.4,14.2,0003.9,0007.11,0014.03,0006.44
2024-01-26 03:11:00,SystemResetWarning,0827.4,5.01,000.00,024.0,023.0,000.0,032.3,025.4,14.3,0003.8,0007.14,0014.36,0006.43
2024-01-26 03:12:00,SystemResetWarning,0827.4,5.01,000.00,023.9,023.0,000.0,032.3,025.3,14.3,0003.8,0007.14,0014.36,0006.42
2024-01-26 03:13:00,SystemResetWarning,0827.4,5.00,000.00,023.9,023.0,000.0,032.3,025.3,14.4,0003.6,0007.18,0015.52,0006.42
2024-01-26 03:14:00,SystemResetWarning,0827.4,4.99,000.00,023.9,023.0,000.0,032.3,025.3,14.4,0003.7,0007.13,0015.30,0006.38
2024-01-26 03:15:00,SystemResetWarning,0827.5,4.99,000.00,023.9,023.0,000.0,032.3,025.3,14.5,0004.0,0007.13,0015.38,0006.35
2024-01-26 03:16:00,SystemResetWarning,0827.4,4.99,000.00,023.9,023.0,000.0,032.3,025.3,14.3,0004.1,0007.07,0015.14,0006.32
2024-01-26 03:17:00,SystemResetWarning,0827.4,5.00,000.00,023.9,023.0,000.0,032.3,025.3,14.2,0003.4,0006.98,0014.99,0006.28
2024-01-26 03:18:00,SystemResetWarning,0827.4,4.99,000.00,023.9,023.0,000.0,032.3,025.2,14.2,0003.2,0006.95,0014.95,0006.24
2024-01-26 03:19:00,SystemResetWarning,0827.4,5.00,000.00,023.9,023.0,000.0,032.3,025.2,14.2,0003.0,0006.91,0015.60,0006.21
2024-01-26 03:20:00,SystemResetWarning,0827.4,5.00,000.00,023.9,023.0,000.0,032.3,025.2,14.1,0003.0,0006.89,0015.20,0006.19
2024-01-26 03:21:00,SystemResetWarning,0827.4,5.01,000.00,023.9,023.0,000.0,032.3,025.2,14.0,0003.1,0006.89,0014.71,0006.19
2024-01-26 03:22:00,SystemResetWarning,0827.4,5.00,000.00,023.9,023.0,000.0,032.3,025.2,14.0,0002.9,0006.86,0015.10,0006.18
2024-01-26 03:23:00,SystemResetWarning,0827.6,4.99,000.00,023.8,023.0,000.0,032.3,025.2,14.1,0002.6,0006.89,0015.41,0006.17
2024-01-26 03:24:00,SystemResetWarning,0827.5,5.00,000.00,023.9,023.0,000.0,032.3,025.2,14.1,0002.4,0006.91,0014.64,0006.18
2024-01-26 03:25:00,SystemResetWarning,0827.4,5.00,000.00,023.9,023.0,000.0,032.2,025.2,14.1,0002.0,0006.93,0014.02,0006.21
2024-01-26 03:26:00,SystemResetWarning,0827.4,5.00,000.00,023.9,023.0,000.0,032.2,025.3,14.0,0002.0,0006.97,0013.83,0006.24
2024-01-26 03:27:00,SystemResetWarning,0827.4,5.00,000.00,023.9,023.0,000.0,032.2,025.2,14.0,0001.8,0007.04,0013.86,0006.28
2024-01-26 03:28:00,SystemResetWarning,0827.4,5.01,000.00,023.9,022.9,000.0,032.2,025.2,14.0,0002.2,0007.09,0014.71,0006.31
2024-01-26 03:29:00,SystemResetWarning,0827.4,5.00,000.00,023.9,022.9,000.0,032.2,025.2,14.0,0002.6,0007.17,0014.30,0006.34
2024-01-26 03:30:00,SystemResetWarning,0827.4,5.01,000.00,023.9,022.9,000.0,032.2,025.2,13.9,0002.9,0007.18,0013.73,0006.35
2024-01-26 03:31:00,SystemResetWarning,0827.4,5.00,000.00,023.9,022.9,000.0,032.2,025.2,13.9,0002.9,0007.18,0013.54,0006.37
2024-01-26 03:32:00,SystemResetWarning,0827.4,5.00,000.00,023.9,022.9,000.0,032.2,025.2,13.9,0002.3,0007.23,0013.67,0006.41
2024-01-26 03:33:00,SystemResetWarning,0827.4,5.00,000.00,023.9,022.9,000.0,032.2,025.2,13.9,0002.6,0007.27,0012.82,0006.48
2024-01-26 03:34:00,SystemResetWarning,0827.4,5.00,000.00,023.9,022.9,000.0,032.2,025.2,13.9,0002.8,0007.36,0012.78,0006.57
2024-01-26 03:35:00,SystemResetWarning,0827.4,5.00,000.00,023.9,022.8,000.0,032.2,025.2,13.9,0002.8,0007.37,0013.11,0006.62
2024-01-26 03:36:00,SystemResetWarning,0827.4,5.00,000.00,023.8,022.8,000.0,032.2,025.2,13.9,0002.7,0007.45,0013.33,0006.70
2024-01-26 03:37:00,SystemResetWarning,0827.4,5.00,000.00,023.8,022.8,000.0,032.2,025.2,13.9,0002.8,0007.53,0013.60,0006.79
2024-01-26 03:38:00,SystemResetWarning,0827.4,5.00,000.00,023.8,022.8,000.0,032.2,025.2,13.9,0003.2,0007.56,0014.36,0006.86
2024-01-26 03:39:00,SystemResetWarning,0827.4,5.00,000.00,023.8,022.8,000.0,032.2,025.2,13.9,0003.1,0007.66,0013.80,0006.93
2024-01-26 03:40:00,SystemResetWarning,0827.4,5.00,000.00,023.8,022.8,000.0,032.2,025.2,13.9,0003.0,0007.73,0013.82,0007.00
2024-01-26 03:41:00,SystemResetWarning,0827.5,5.00,000.00,023.8,022.8,000.0,032.2,025.2,13.9,0002.7,0007.78,0014.41,0007.05
2024-01-26 03:42:00,SystemResetWarning,0827.4,5.00,000.00,023.8,022.8,000.0,032.2,025.2,13.9,0002.2,0007.85,0014.98,0007.08
2024-01-26 03:43:00,SystemResetWarning,0827.4,5.00,000.00,023.8,022.7,000.0,032.2,025.2,13.9,0002.4,0007.87,0014.77,0007.08
2024-01-26 03:44:00,SystemResetWarning,0827.4,5.00,000.00,023.8,022.7,000.0,032.2,025.2,13.9,0002.2,0007.96,0015.29,0007.08
2024-01-26 03:45:00,SystemResetWarning,0827.4,5.00,000.00,023.8,022.7,000.0,032.2,025.1,13.9,0002.7,0007.96,0015.21,0007.04
2024-01-26 03:46:00,SystemResetWarning,0827.4,5.00,000.00,023.8,022.7,000.0,032.2,025.2,13.9,0002.8,0008.01,0015.04,0007.03
2024-01-26 03:47:00,SystemResetWarning,0827.4,5.00,000.00,023.8,022.7,000.0,032.2,025.2,13.9,0002.9,0008.04,0015.20,0007.00
2024-01-26 03:48:00,SystemResetWarning,0827.4,5.00,000.00,023.8,022.7,000.0,032.2,025.2,13.9,0002.7,0008.01,0015.12,0006.96
2024-01-26 03:49:00,SystemResetWarning,0827.6,5.00,000.00,023.8,022.7,000.0,032.1,025.1,13.9,0002.9,0008.00,0014.66,0006.90
2024-01-26 03:50:00,SystemResetWarning,0827.6,5.01,000.00,023.8,022.7,000.0,032.2,025.1,13.9,0003.0,0007.94,0014.72,0006.83
2024-01-26 03:51:00,SystemResetWarning,0827.6,5.01,000.00,023.8,022.7,000.0,032.1,025.1,13.9,0003.1,0007.86,0014.91,0006.78
2024-01-26 03:52:00,SystemResetWarning,0827.4,5.00,000.00,023.8,022.7,000.0,032.1,025.1,14.1,0003.2,0007.82,0014.45,0006.75
2024-01-26 03:53:00,SystemResetWarning,0827.4,5.00,000.00,023.8,022.6,000.0,032.1,025.1,14.2,0003.3,0007.77,0014.14,0006.74
2024-01-26 03:54:00,SystemResetWarning,0827.4,5.00,000.00,023.8,022.6,000.0,032.1,025.1,14.1,0003.4,0007.79,0015.07,0006.73
2024-01-26 03:55:00,SystemResetWarning,0827.4,5.00,000.00,023.8,022.6,000.0,032.1,025.1,14.0,0003.8,0007.73,0016.05,0006.69
2024-01-26 03:56:00,SystemResetWarning,0827.7,4.99,000.00,023.8,022.6,000.0,032.1,025.1,14.0,0004.0,0007.62,0016.48,0006.65
2024-01-26 03:57:00,SystemResetWarning,0828.0,5.00,000.00,023.8,022.5,000.0,032.1,025.1,14.1,0003.9,0007.53,0016.68,0006.62
2024-01-26 03:58:00,SystemResetWarning,0827.9,5.00,000.00,023.7,022.5,000.0,032.1,025.1,14.1,0004.0,0007.42,0016.79,0006.58
2024-01-26 03:59:00,SystemResetWarning,0828.0,5.01,000.00,023.7,022.5,000.0,032.1,025.0,14.1,0004.2,0007.34,0017.07,0006.53
